Hauptseite
METAR-TAF:

METAR-TAF

Flughäfen :

Meierwik

Glücksburg, Deutschland

Breite: 54-50N, Länge: 009-30E, Höhe: 27 m

Beobachtung

Neuester Wetterbericht von vor 1 Stunde und 5 Minuten, um 16:20 UTC
Wind 14 kt aus Süd, Böen bis zu 25 kt
Temperatur 2°C
Luftfeuchtigkeit 80%
Luftdruck 1013 hPa
Sichtweite 10 km oder mehr

METAR: ETGG 301620Z AUTO 19014G25KT 9999 // ////// 02/M01 Q1013 ///

Zeit: 18:25 (17:25 UTC)


TAF: fehlend

Wetterbeobachtungen und Prognosen von mehr als 4000 Flughäfen (METAR und TAF Bericht).

Die verfügbaren Stationen werden durch gelbe und rote Markierungen auf der Karte dargestellt.

Führen Sie die Maus auf sie, um den Namen der Station zu sehen.

Darauf klicken, um die Beobachtung von Wetterbeobachtungen und Prognosen zu sehen.

Um die Karte zu ändern : klicken Sie auf den grünen Tasten mit einem schwarzen Kreuz Zum Vergrößern, auf den grünen Button mit einem Gedankenstrich zu verkleinern, oder auf die grünen Pfeile für benachbarte Karten.


METAR-TAF: